Temp
10 10 9 9 9 9 9 8 8 8 8 8 7 7 7 7 7 7 8 8 7 8 8 7 7 7 7 7 7 7 7 7 7
10 9 9 9 9 9 9 8 8 8 8 8 8 8 8 7 7 8 8 7 7 7 7 7 7 7 7 6 6 6 6 6 7
9 9 9 9 9 9 9 8 8 8 8 7 7 7 7 7 7 7 8 7 7 7 7 7 6 6 6 6 6 6 6 6 6
9 9 9 9 9 9 9 8 8 8 8 7 7 7 7 7 7 7 7 7 7 7 7 6 6 6 6 6 6 6 6 6 6
9 9 9 9 9 8 9 8 8 8 7 7 8 7 7 7 7 7 7 7 7 6 6 6 6 6 6 6 6 6 6 6 6
9 9 9 9 8 9 9 8 8 8 7 7 7 7 7 7 7 7 7 7 6 6 6 6 6 6 6 6 6 6 5 5 5
9 9 8 8 8 8 9 8 8 8 8 8 7 7 7 7 7 7 7 7 6 6 6 6 6 6 5 5 5 5 5 5 5
8 8 8 8 8 8 8 8 8 7 7 7 7 7 7 7 7 7 7 6 6 6 6 6 6 6 6 5 5 5 5 5 5
8 8 8 8 8 8 8 8 7 7 7 7 7 7 7 7 7 7 6 6 6 6 6 6 6 5 5 5 5 5 5 4 4
8 8 8 8 7 8 8 8 7 7 7 7 7 7 7 7 7 6 6 6 6 6 6 5 5 5 5 4 4 4 4 4 4
8 8 8 8 8 8 8 8 7 7 7 7 7 7 6 6 6 6 6 6 6 5 5 5 4 4 4 4 4 4 4 4 4
8 8 8 7 7 7 7 7 7 6 6 6 6 6 6 6 6 6 5 5 5 5 4 4 4 4 4 4 3 3 3 3 3
7 7 7 7 7 7 7 7 7 6 6 6 6 6 6 6 5 5 5 5 4 4 4 4 4 3 3 3 3 3 3 3 3
7 6 6 6 7 7 6 6 6 6 6 5 5 5 5 5 5 5 5 4 4 4 4 3 3 3 3 3 3 2 2 2 2
7 7 6 6 6 6 6 6 6 6 6 5 5 5 5 5 5 4 4 4 3 3 3 2 2 2 2 2 2 2 2 2 2
7 7 7 6 6 6 6 6 6 6 5 5 5 5 4 4 4 4 4 3 3 3 2 2 1 1 1 1 1 1 1 1 1
6 6 6 6 6 6 6 6 6 6 5 5 5 5 4 4 3 3 3 3 2 2 1 1 1 1 1 0 0 0 -0 -0 -0
5 5 6 6 6 6 5 5 5 5 5 4 4 4 4 3 3 3 3 2 2 1 1 0 -0 0 0 -0 -1 -1 -1 -1 -1
5 5 5 5 5 5 5 5 5 4 4 4 4 4 3 3 2 2 2 1 1 0 0 -0 -0 -0 -1 -1 -1 -1 -1 -1 -2
5 5 5 5 5 5 4 4 4 3 3 3 3 3 3 3 2 2 1 1 0 -0 -1 -1 -1 -1 -1 -1 -1 -1 -2 -2 -2
Height
3161 3162 3163 3164 3165 3166 3168 3169 3171 3172 3173 3174 3174 3175 3175 3176 3175 3175 3174 3173 3173 3172 3172 3172 3172 3171 3172 3172 3172 3172 3172 3171 3170
3161 3162 3163 3164 3166 3167 3169 3170 3172 3173 3174 3175 3175 3175 3176 3175 3175 3175 3174 3173 3173 3172 3173 3173 3172 3172 3173 3173 3173 3172 3171 3170 3170
3161 3162 3163 3164 3166 3168 3169 3171 3172 3172 3173 3174 3174 3175 3175 3175 3175 3175 3174 3174 3174 3173 3173 3173 3173 3173 3173 3172 3172 3172 3172 3171 3170
3161 3162 3164 3165 3167 3168 3170 3171 3172 3173 3174 3175 3175 3176 3176 3176 3176 3175 3175 3175 3174 3174 3174 3173 3173 3173 3173 3172 3172 3172 3171 3171 3171
3161 3163 3164 3166 3167 3169 3170 3172 3173 3174 3175 3175 3175 3176 3176 3176 3175 3175 3175 3174 3174 3174 3174 3173 3174 3173 3173 3173 3172 3172 3171 3170 3170
3161 3162 3164 3165 3167 3169 3170 3172 3174 3175 3175 3176 3175 3176 3176 3176 3176 3176 3175 3175 3174 3174 3174 3174 3174 3173 3173 3173 3172 3171 3171 3170 3169
3160 3162 3163 3165 3167 3168 3170 3172 3174 3174 3175 3175 3176 3175 3175 3176 3175 3175 3175 3174 3174 3174 3175 3175 3174 3173 3172 3172 3172 3171 3170 3169 3168
3160 3162 3163 3165 3166 3168 3170 3172 3174 3174 3174 3174 3175 3176 3176 3176 3176 3176 3176 3175 3175 3175 3174 3174 3174 3173 3172 3171 3170 3170 3169 3168 3167
3159 3161 3163 3164 3166 3167 3169 3171 3172 3173 3174 3174 3174 3174 3175 3175 3175 3176 3176 3175 3175 3175 3174 3174 3173 3172 3171 3170 3169 3168 3168 3167 3166
3158 3160 3162 3163 3165 3167 3168 3170 3171 3171 3172 3172 3173 3174 3174 3174 3174 3174 3174 3174 3175 3175 3174 3173 3172 3171 3170 3169 3168 3167 3166 3165 3163
3156 3159 3161 3162 3164 3165 3166 3168 3169 3170 3170 3171 3171 3172 3172 3172 3172 3173 3173 3173 3173 3173 3172 3172 3171 3169 3168 3167 3166 3164 3163 3161 3160
3154 3157 3158 3160 3162 3163 3164 3166 3167 3168 3168 3169 3170 3170 3171 3171 3171 3171 3171 3170 3170 3170 3169 3169 3167 3166 3165 3164 3162 3161 3159 3158 3156
3152 3154 3156 3158 3159 3161 3162 3163 3164 3165 3166 3167 3168 3168 3168 3168 3168 3168 3169 3169 3169 3168 3167 3166 3165 3164 3162 3160 3159 3157 3156 3154 3153
3150 3151 3153 3155 3157 3158 3160 3161 3162 3162 3163 3163 3164 3164 3165 3165 3165 3165 3165 3165 3165 3164 3163 3162 3161 3160 3158 3156 3155 3154 3152 3151 3149
3146 3149 3150 3152 3154 3156 3157 3158 3159 3160 3160 3160 3161 3161 3162 3162 3162 3162 3161 3161 3161 3160 3160 3158 3157 3155 3153 3151 3150 3149 3148 3146 3143
3143 3145 3147 3150 3152 3153 3154 3154 3155 3156 3157 3159 3159 3159 3158 3158 3158 3157 3157 3157 3156 3156 3156 3155 3152 3151 3149 3147 3145 3144 3142 3140 3138
3140 3142 3144 3146 3147 3148 3150 3151 3152 3153 3153 3154 3154 3154 3156 3155 3155 3153 3153 3153 3152 3152 3151 3149 3147 3146 3144 3142 3139 3138 3136 3134 3132
3136 3138 3140 3141 3143 3145 3146 3147 3147 3148 3149 3149 3149 3148 3150 3149 3149 3150 3149 3148 3147 3146 3145 3144 3141 3140 3139 3137 3135 3133 3131 3129 3126
3131 3133 3135 3136 3138 3139 3141 3142 3143 3143 3144 3143 3144 3143 3144 3143 3144 3143 3142 3141 3141 3140 3139 3138 3137 3135 3134 3132 3130 3127 3125 3121 3118
3125 3127 3128 3130 3132 3133 3133 3134 3136 3137 3138 3138 3139 3139 3138 3138 3137 3137 3136 3135 3134 3134 3133 3132 3131 3129 3127 3125 3123 3121 3118 3115 3112
Wind_Speed
14 15 15 15 15 14 13 13 12 12 11 8 7 7 7 6 5 4 4 5 7 6 9 9 9 8 7 7 6 7 7 7 7
14 15 15 15 14 14 13 13 12 12 11 9 8 7 7 5 4 3 5 8 8 8 9 10 9 9 8 7 6 6 7 7 7
15 14 14 14 13 13 12 11 11 10 9 8 7 7 5 5 5 4 6 7 7 8 8 8 8 8 8 7 6 6 6 6 7
15 14 13 13 13 13 12 11 10 9 8 6 5 5 5 4 5 5 5 6 7 7 7 8 8 8 7 7 6 6 6 7 8
14 14 14 13 12 12 11 11 9 8 6 5 4 4 5 4 4 4 5 6 7 6 7 7 7 7 6 6 5 5 5 6 6
14 14 13 13 12 11 9 9 8 6 4 3 3 3 4 3 3 4 4 5 6 6 6 6 6 6 5 5 5 5 5 6 7
14 14 14 13 12 10 9 9 8 7 5 3 2 2 2 2 2 3 3 3 4 5 4 4 4 4 4 5 6 7 8 8 9
14 14 13 12 12 11 9 8 7 6 5 4 2 1 0 0 0 1 1 2 3 3 3 3 4 4 5 5 6 7 8 10 10
14 14 13 12 12 11 10 9 7 6 5 4 3 3 2 2 2 2 3 3 3 3 4 4 5 5 6 7 7 8 9 10 11
15 14 13 13 12 11 10 10 9 8 7 5 5 5 5 4 4 4 4 5 6 6 6 7 8 8 8 9 9 10 11 12 13
16 16 15 15 14 13 12 11 10 9 8 8 7 7 7 6 7 7 7 7 8 9 9 9 10 11 12 13 13 14 14 15 15
18 17 17 17 16 15 14 12 11 10 10 9 9 9 8 8 9 9 10 10 11 11 12 12 13 14 15 15 16 16 17 17 18
19 19 19 19 18 18 17 15 14 13 12 12 12 11 11 11 11 12 13 13 14 14 15 15 17 18 18 19 19 20 20 20 21
21 21 21 21 20 19 18 18 17 17 15 15 15 15 15 14 14 14 15 15 16 17 18 18 19 20 21 22 23 23 23 24 24
23 23 22 22 22 21 21 21 20 20 20 19 18 17 17 16 16 17 17 17 18 19 20 21 21 21 23 24 25 25 26 26 27
25 25 25 24 23 23 24 24 23 23 21 20 20 19 20 19 18 19 20 20 20 21 22 23 23 25 25 26 26 27 28 29 30
26 26 26 26 27 27 27 26 25 25 24 22 23 24 22 21 21 20 21 22 22 22 23 24 26 27 27 27 27 28 29 31 33
26 27 28 28 28 27 28 28 28 26 26 27 27 25 23 22 23 23 24 24 24 24 24 26 27 28 29 28 28 30 31 32 34
28 28 29 29 29 29 28 29 29 29 29 29 28 27 27 27 24 24 24 25 25 26 27 27 28 29 29 29 30 31 32 34 35
30 31 31 31 31 31 32 32 30 30 29 29 28 28 29 30 27 26 26 27 27 29 28 28 29 29 29 30 31 32 33 35 38
Wind_Direction
163 160 160 158 156 153 147 144 144 139 144 145 132 120 118 118 107 98 93 94 78 66 67 64 71 82 85 85 90 89 80 67 51
161 160 159 155 153 149 147 147 145 144 140 139 132 125 120 113 108 95 89 81 73 59 66 74 81 85 92 92 84 74 61 51 41
162 160 158 153 152 148 144 143 140 132 129 130 130 120 121 114 104 83 68 69 72 72 76 79 85 90 85 80 67 51 38 32 26
163 162 161 158 155 150 148 147 140 131 129 139 131 127 117 110 100 92 94 88 83 75 73 74 74 72 71 65 56 46 33 19 12
167 166 165 163 159 157 158 142 135 136 143 149 126 114 109 111 105 99 80 73 72 71 69 69 68 69 62 56 47 35 22 9 358
174 174 173 170 165 165 160 139 140 151 162 159 136 123 118 106 101 85 80 77 76 67 63 62 59 57 53 46 39 24 10 354 350
180 182 180 178 173 171 164 153 161 169 179 173 161 143 113 98 83 86 80 78 69 58 55 47 40 34 30 18 5 359 351 345 340
185 186 186 184 181 177 173 166 176 175 184 176 185 196 17 335 11 21 37 37 48 40 23 11 358 352 350 349 345 336 332 331 330
191 191 190 192 192 189 178 176 181 181 197 194 201 223 233 252 282 311 323 332 336 333 323 316 313 318 321 320 321 320 320 319 318
193 194 196 200 201 199 191 187 189 189 199 209 218 231 244 251 257 263 281 296 301 300 298 299 304 307 308 306 307 309 310 312 315
197 199 201 204 204 203 204 199 198 201 208 220 227 232 239 249 261 269 272 272 278 283 286 288 293 296 299 300 301 302 303 305 307
204 206 207 210 211 211 212 211 211 215 219 227 239 248 257 260 265 271 275 276 276 278 282 286 290 290 291 292 292 294 297 299 301
212 212 216 217 217 217 218 216 217 221 226 233 240 247 251 259 265 270 275 279 282 284 284 287 289 290 290 291 293 294 295 297 299
220 220 220 224 225 225 225 225 223 222 225 232 237 241 247 252 259 263 269 274 278 281 283 284 284 286 288 290 291 292 294 297 300
223 227 228 229 230 232 232 233 232 231 231 232 238 244 249 253 258 264 266 271 275 278 281 282 282 283 284 287 288 290 293 296 298
227 228 230 232 236 237 236 237 239 241 241 242 246 250 253 256 258 265 269 271 276 279 282 282 282 283 283 286 291 293 293 297 300
232 233 235 236 234 236 241 243 244 247 248 249 247 248 253 258 264 265 270 273 275 276 278 278 280 281 283 284 287 291 296 301 302
235 237 239 240 243 245 245 245 248 250 250 250 252 255 256 257 258 267 270 274 276 277 276 276 277 280 283 286 290 293 296 300 302
238 240 241 244 245 245 248 250 251 251 253 254 257 259 260 258 260 263 269 273 276 276 274 275 278 282 285 287 289 294 297 299 301
240 241 242 243 245 246 247 247 248 251 253 256 258 260 263 264 264 265 269 271 275 276 276 277 277 279 281 285 289 293 298 302 303